| time (UTC) | temp F | wind direction | speed knots | gust knots | rain 1hr in | rain 24hr in | rain mn in | humidity % | barometer mb |
| 20260506034007 | 59 | 276 | 0.0 | 0.0 | 0.00 | 0.06 | 0.06 | 78 | 1008.6 |
| 20260506033503 | 59 | 276 | 0.0 | 0.0 | 0.00 | 0.06 | 0.06 | 78 | 1008.7 |
| 20260506033005 | 59 | 276 | 0.0 | 0.0 | 0.00 | 0.06 | 0.06 | 78 | 1008.7 |
| 20260506032503 | 59 | 276 | 0.0 | 0.0 | 0.00 | 0.06 | 0.06 | 78 | 1008.6 |
| 20260506032004 | 59 | 276 | 0.0 | 0.0 | 0.00 | 0.06 | 0.06 | 78 | 1008.6 |
| 20260506031514 | 59 | 276 | 0.0 | 0.0 | 0.00 | 0.06 | 0.06 | 78 | 1008.7 |
| 20260506031008 | 59 | 276 | 0.0 | 0.0 | 0.00 | 0.06 | 0.06 | 79 | 1008.7 |
| 20260506030506 | 59 | 276 | 0.0 | 0.0 | 0.00 | 0.06 | 0.06 | 78 | 1008.7 |
| 20260506030028 | 60 | 276 | 0.0 | 0.0 | 0.00 | 0.06 | 0.06 | 76 | 1008.7 |
| 20260506025507 | 60 | 276 | 0.0 | 0.9 | 0.00 | 0.06 | 0.06 | 74 | 1008.7 |
| 20260506025007 | 61 | 276 | 0.0 | 0.9 | 0.00 | 0.06 | 0.06 | 73 | 1008.7 |
| 20260506024519 | 62 | 276 | 0.0 | 0.0 | 0.00 | 0.06 | 0.06 | 72 | 1008.6 |
| 20260506024010 | 62 | 276 | 0.0 | 0.0 | 0.00 | 0.06 | 0.06 | 70 | 1008.7 |
| 20260506023511 | 62 | 276 | 0.0 | 0.9 | 0.00 | 0.06 | 0.06 | 70 | 1008.7 |
| 20260506023020 | 63 | 276 | 0.0 | 0.9 | 0.00 | 0.06 | 0.06 | 69 | 1008.7 |
| 20260506022508 | 63 | 276 | 0.0 | 0.9 | 0.00 | 0.06 | 0.06 | 69 | 1008.7 |
| 20260506022010 | 63 | 276 | 0.0 | 0.9 | 0.00 | 0.06 | 0.06 | 68 | 1008.7 |
| 20260506021506 | 64 | 276 | 0.0 | 0.9 | 0.00 | 0.06 | 0.06 | 68 | 1008.7 |
| 20260506021003 | 64 | 276 | 0.0 | 0.9 | 0.00 | 0.06 | 0.06 | 67 | 1008.7 |
| 20260506020511 | 64 | 276 | 0.0 | 0.9 | 0.00 | 0.06 | 0.06 | 67 | 1008.8 |
| 20260506020006 | 64 | 276 | 0.0 | 0.9 | 0.00 | 0.06 | 0.06 | 66 | 1008.8 |
| 20260506015505 | 64 | 276 | 0.0 | 0.9 | 0.00 | 0.06 | 0.06 | 66 | 1008.8 |
| 20260506015004 | 64 | 276 | 0.0 | 0.9 | 0.00 | 0.06 | 0.06 | 66 | 1008.8 |
| 20260506014513 | 64 | 276 | 0.0 | 0.9 | 0.00 | 0.06 | 0.06 | 66 | 1008.7 |
| 20260506014006 | 64 | 276 | 0.0 | 0.0 | 0.00 | 0.06 | 0.06 | 65 | 1008.6 |
| 20260506013509 | 65 | 276 | 0.0 | 0.0 | 0.00 | 0.06 | 0.06 | 64 | 1008.6 |
| 20260506013026 | 65 | 276 | 0.0 | 0.0 | 0.00 | 0.06 | 0.06 | 64 | 1008.5 |
| 20260506012510 | 65 | 276 | 0.0 | 1.7 | 0.00 | 0.06 | 0.06 | 64 | 1008.5 |
| 20260506012011 | 65 | 276 | 0.0 | 1.7 | 0.00 | 0.06 | 0.06 | 64 | 1008.4 |
| 20260506011520 | 66 | 272 | 0.0 | 0.9 | 0.00 | 0.06 | 0.06 | 64 | 1008.4 |
| 20260506011006 | 66 | 271 | 0.0 | 0.9 | 0.00 | 0.06 | 0.06 | 63 | 1008.3 |
| 20260506010510 | 66 | 271 | 0.0 | 0.9 | 0.00 | 0.06 | 0.06 | 62 | 1008.4 |
| 20260506010011 | 66 | 271 | 0.0 | 0.9 | 0.00 | 0.06 | 0.06 | 62 | 1008.4 |
| 20260506005503 | 66 | 271 | 0.0 | 0.9 | 0.00 | 0.06 | 0.06 | 61 | 1008.2 |
| 20260506005006 | 66 | 272 | 0.0 | 0.9 | 0.00 | 0.06 | 0.06 | 64 | 1008.2 |
| 20260506004511 | 66 | 272 | 0.0 | 0.9 | 0.00 | 0.06 | 0.06 | 64 | 1008.2 |
| 20260506004011 | 67 | 271 | 0.0 | 0.9 | 0.00 | 0.06 | 0.06 | 60 | 1008.1 |
| 20260506003507 | 67 | 272 | 0.0 | 0.9 | 0.00 | 0.06 | 0.06 | 60 | 1008.1 |
| 20260506003015 | 67 | 271 | 0.0 | 0.0 | 0.00 | 0.06 | 0.06 | 60 | 1008.0 |
| 20260506002507 | 67 | 271 | 0.0 | 0.0 | 0.00 | 0.06 | 0.06 | 59 | 1007.9 |
| 20260506002008 | 68 | 271 | 0.0 | 0.9 | 0.00 | 0.06 | 0.06 | 59 | 1007.8 |
| 20260506001516 | 68 | 272 | 0.0 | 0.9 | 0.00 | 0.06 | 0.06 | 58 | 1007.8 |
| 20260506001009 | 68 | 272 | 0.0 | 0.0 | 0.00 | 0.06 | 0.06 | 58 | 1007.8 |
| 20260506000508 | 68 | 272 | 0.0 | 0.9 | 0.00 | 0.06 | 0.06 | 57 | 1007.8 |
| 20260506000023 | 68 | 272 | 0.0 | 0.9 | 0.00 | 0.06 | 0.06 | 57 | 1007.7 |
| 20260505235507 | 69 | 271 | 0.0 | 0.9 | 0.00 | 0.06 | 0.06 | 57 | 1007.6 |
| 20260505235012 | 69 | 271 | 0.0 | 0.9 | 0.00 | 0.06 | 0.06 | 58 | 1007.6 |
| 20260505234530 | 69 | 272 | 0.0 | 0.9 | 0.00 | 0.06 | 0.06 | 57 | 1007.6 |
| 20260505234003 | 69 | 271 | 0.0 | 0.9 | 0.00 | 0.06 | 0.06 | 57 | 1007.6 |
| 20260505233504 | 70 | 304 | 0.0 | 0.9 | 0.00 | 0.06 | 0.06 | 56 | 1007.6 |
| 20260505233008 | 70 | 304 | 0.0 | 0.9 | 0.00 | 0.06 | 0.06 | 57 | 1007.6 |
| 20260505232509 | 70 | 330 | 0.0 | 0.9 | 0.00 | 0.06 | 0.06 | 56 | 1007.5 |
| 20260505232010 | 70 | 320 | 0.0 | 0.9 | 0.00 | 0.06 | 0.06 | 55 | 1007.5 |
| 20260505231518 | 70 | 231 | 0.0 | 0.9 | 0.00 | 0.06 | 0.06 | 56 | 1007.5 |
| 20260505231006 | 70 | 231 | 0.0 | 0.9 | 0.00 | 0.06 | 0.06 | 56 | 1007.5 |
| 20260505230507 | 71 | 231 | 0.0 | 0.9 | 0.00 | 0.06 | 0.06 | 57 | 1007.5 |
| 20260505230027 | 71 | 226 | 0.9 | 0.9 | 0.00 | 0.06 | 0.06 | 55 | 1007.4 |
| 20260505225518 | 72 | 157 | 0.0 | 0.0 | 0.00 | 0.06 | 0.06 | 51 | 1007.3 |
| 20260505225009 | 72 | 156 | 0.0 | 0.9 | 0.00 | 0.06 | 0.06 | 51 | 1007.3 |
| 20260505224526 | 73 | 156 | 0.0 | 2.6 | 0.00 | 0.06 | 0.06 | 51 | 1007.4 |
| 20260505224011 | 73 | 209 | 0.0 | 2.6 | 0.00 | 0.06 | 0.06 | 48 | 1007.4 |
| 20260505223512 | 73 | 174 | 0.0 | 2.6 | 0.00 | 0.06 | 0.06 | 48 | 1007.3 |
| 20260505223024 | 73 | 327 | 0.0 | 4.3 | 0.00 | 0.06 | 0.06 | 48 | 1007.3 |
| 20260505222506 | 73 | 287 | 1.7 | 5.2 | 0.00 | 0.06 | 0.06 | 49 | 1007.4 |
| 20260505222008 | 73 | 2 | 1.7 | 5.2 | 0.00 | 0.06 | 0.06 | 47 | 1007.4 |
| 20260505221513 | 74 | 167 | 1.7 | 7.0 | 0.00 | 0.06 | 0.06 | 46 | 1007.6 |
| 20260505221006 | 74 | 241 | 1.7 | 7.0 | 0.00 | 0.06 | 0.06 | 45 | 1007.5 |
| 20260505220507 | 75 | 285 | 1.7 | 7.0 | 0.00 | 0.06 | 0.06 | 47 | 1007.6 |
| 20260505220019 | 75 | 336 | 2.6 | 6.1 | 0.00 | 0.06 | 0.06 | 45 | 1007.4 |
| 20260505215510 | 75 | 78 | 1.7 | 6.1 | 0.00 | 0.06 | 0.06 | 48 | 1007.3 |
| 20260505215008 | 76 | 306 | 0.9 | 5.2 | 0.00 | 0.06 | 0.06 | 48 | 1007.3 |
| 20260505214523 | 76 | 25 | 1.7 | 4.3 | 0.00 | 0.06 | 0.06 | 45 | 1007.1 |
| 20260505214007 | 77 | 359 | 0.0 | 2.6 | 0.00 | 0.06 | 0.06 | 44 | 1007.1 |
| 20260505213508 | 77 | 117 | 0.9 | 2.6 | 0.00 | 0.06 | 0.06 | 40 | 1006.9 |
| 20260505213025 | 78 | 37 | 0.0 | 1.7 | 0.00 | 0.06 | 0.06 | 44 | 1006.8 |
| 20260505212513 | 78 | 70 | 0.9 | 1.7 | 0.00 | 0.06 | 0.06 | 39 | 1006.6 |
| 20260505212013 | 78 | 154 | 0.0 | 4.3 | 0.00 | 0.06 | 0.06 | 39 | 1006.7 |
| 20260505211526 | 78 | 326 | 0.9 | 4.3 | 0.00 | 0.06 | 0.06 | 42 | 1006.8 |
| 20260505211010 | 78 | 110 | 1.7 | 4.3 | 0.00 | 0.06 | 0.06 | 37 | 1006.8 |
| 20260505210508 | 78 | 292 | 1.7 | 4.3 | 0.00 | 0.06 | 0.06 | 41 | 1006.8 |
| 20260505210023 | 78 | 158 | 0.9 | 4.3 | 0.00 | 0.06 | 0.06 | 39 | 1006.8 |
| 20260505205512 | 77 | 41 | 0.0 | 3.5 | 0.00 | 0.06 | 0.06 | 38 | 1006.7 |
| 20260505205011 | 77 | 49 | 0.0 | 3.5 | 0.00 | 0.06 | 0.06 | 38 | 1006.7 |
| 20260505204518 | 77 | 250 | 1.7 | 6.1 | 0.00 | 0.06 | 0.06 | 38 | 1006.7 |
| 20260505204007 | 76 | 131 | 1.7 | 6.1 | 0.00 | 0.06 | 0.06 | 39 | 1006.7 |
| 20260505203502 | 76 | 281 | 2.6 | 9.6 | 0.00 | 0.06 | 0.06 | 39 | 1006.7 |
| 20260505203004 | 76 | 165 | 3.5 | 13.0 | 0.00 | 0.06 | 0.06 | 39 | 1006.8 |
| 20260505202504 | 77 | 340 | 3.5 | 13.0 | 0.00 | 0.06 | 0.06 | 37 | 1006.7 |
| 20260505202002 | 77 | 205 | 1.7 | 7.0 | 0.00 | 0.06 | 0.06 | 38 | 1006.6 |
| 20260505201506 | 78 | 212 | 1.7 | 7.0 | 0.00 | 0.06 | 0.06 | 39 | 1006.3 |
| 20260505201005 | 78 | 219 | 1.7 | 3.5 | 0.00 | 0.06 | 0.06 | 35 | 1006.2 |
| 20260505200504 | 78 | 81 | 0.0 | 5.2 | 0.00 | 0.06 | 0.06 | 36 | 1006.3 |
| 20260505200009 | 78 | 251 | 1.7 | 7.0 | 0.00 | 0.06 | 0.06 | 37 | 1006.4 |
| 20260505195504 | 78 | 90 | 3.5 | 7.8 | 0.00 | 0.06 | 0.06 | 35 | 1006.4 |
| 20260505195002 | 78 | 231 | 3.5 | 9.6 | 0.00 | 0.06 | 0.06 | 36 | 1006.3 |
| 20260505194506 | 78 | 198 | 2.6 | 9.6 | 0.00 | 0.06 | 0.06 | 36 | 1006.3 |
| 20260505194006 | 78 | 259 | 3.5 | 8.7 | 0.00 | 0.06 | 0.06 | 35 | 1006.3 |
| 20260505193504 | 78 | 204 | 4.3 | 9.6 | 0.00 | 0.06 | 0.06 | 36 | 1006.3 |
| 20260505193004 | 79 | 229 | 5.2 | 9.6 | 0.00 | 0.06 | 0.06 | 35 | 1006.3 |
| 20260505192504 | 79 | 194 | 4.3 | 7.0 | 0.00 | 0.06 | 0.06 | 36 | 1006.3 |
| 20260505192003 | 80 | 171 | 4.3 | 9.6 | 0.00 | 0.06 | 0.06 | 37 | 1006.2 |
| 20260505191506 | 79 | 199 | 4.3 | 10.4 | 0.00 | 0.06 | 0.06 | 38 | 1006.2 |
| 20260505191006 | 80 | 226 | 5.2 | 10.4 | 0.00 | 0.06 | 0.06 | 39 | 1006.2 |
| 20260505190503 | 79 | 178 | 5.2 | 9.6 | 0.00 | 0.06 | 0.06 | 40 | 1006.1 |
| 20260505190006 | 79 | 147 | 4.3 | 11.3 | 0.00 | 0.06 | 0.06 | 38 | 1006.1 |
| 20260505185503 | 78 | 196 | 4.3 | 11.3 | 0.00 | 0.06 | 0.06 | 38 | 1006.1 |
| 20260505185006 | 79 | 187 | 7.0 | 11.3 | 0.00 | 0.06 | 0.06 | 36 | 1006.2 |
| 20260505184507 | 79 | 198 | 6.1 | 11.3 | 0.00 | 0.06 | 0.06 | 37 | 1006.4 |
| 20260505184005 | 79 | 209 | 5.2 | 8.7 | 0.00 | 0.06 | 0.06 | 37 | 1006.4 |
| 20260505183504 | 79 | 191 | 5.2 | 11.3 | 0.00 | 0.06 | 0.06 | 37 | 1006.6 |
| 20260505183004 | 80 | 177 | 4.3 | 11.3 | 0.00 | 0.06 | 0.06 | 39 | 1006.7 |
| 20260505182503 | 80 | 198 | 5.2 | 10.4 | 0.00 | 0.06 | 0.06 | 38 | 1006.6 |
| 20260505182004 | 80 | 190 | 6.1 | 17.4 | 0.00 | 0.06 | 0.06 | 39 | 1006.6 |
| 20260505181506 | 80 | 195 | 8.7 | 17.4 | 0.00 | 0.06 | 0.06 | 37 | 1006.7 |
| 20260505181004 | 81 | 198 | 5.2 | 9.6 | 0.00 | 0.06 | 0.06 | 39 | 1006.8 |
| 20260505180502 | 80 | 207 | 5.2 | 10.4 | 0.00 | 0.06 | 0.06 | 39 | 1006.9 |
| 20260505180010 | 80 | 230 | 7.0 | 10.4 | 0.00 | 0.06 | 0.06 | 40 | 1006.9 |
| 20260505175504 | 80 | 188 | 4.3 | 12.2 | 0.00 | 0.06 | 0.06 | 41 | 1007.1 |
| 20260505175004 | 80 | 179 | 5.2 | 12.2 | 0.00 | 0.06 | 0.06 | 41 | 1007.2 |
| 20260505174508 | 80 | 198 | 5.2 | 12.2 | 0.00 | 0.06 | 0.06 | 42 | 1007.3 |
| 20260505174005 | 80 | 181 | 3.5 | 7.0 | 0.00 | 0.06 | 0.06 | 46 | 1007.5 |
| 20260505173505 | 79 | 195 | 2.6 | 7.0 | 0.00 | 0.06 | 0.06 | 47 | 1007.6 |
| 20260505173010 | 78 | 195 | 3.5 | 9.6 | 0.00 | 0.06 | 0.06 | 44 | 1007.6 |
| 20260505172504 | 78 | 195 | 3.5 | 9.6 | 0.00 | 0.06 | 0.06 | 45 | 1007.5 |
| 20260505172007 | 78 | 130 | 5.2 | 9.6 | 0.00 | 0.06 | 0.06 | 47 | 1007.4 |
| 20260505171518 | 78 | 209 | 4.3 | 7.0 | 0.00 | 0.06 | 0.06 | 45 | 1007.5 |
| 20260505171004 | 78 | 180 | 3.5 | 7.0 | 0.00 | 0.06 | 0.06 | 47 | 1007.5 |
| 20260505170505 | 78 | 196 | 4.3 | 7.0 | 0.00 | 0.06 | 0.06 | 44 | 1007.5 |
| 20260505170014 | 78 | 227 | 3.5 | 6.1 | 0.00 | 0.06 | 0.06 | 48 | 1007.6 |
| 20260505165504 | 77 | 148 | 1.7 | 7.0 | 0.00 | 0.06 | 0.06 | 45 | 1007.6 |
| 20260505165006 | 77 | 224 | 3.5 | 9.6 | 0.00 | 0.06 | 0.06 | 46 | 1007.6 |
| 20260505164509 | 77 | 169 | 3.5 | 11.3 | 0.00 | 0.06 | 0.06 | 45 | 1007.6 |
| 20260505164004 | 78 | 225 | 6.1 | 11.3 | 0.00 | 0.06 | 0.06 | 44 | 1007.7 |
| 20260505163504 | 78 | 207 | 4.3 | 8.7 | 0.00 | 0.06 | 0.06 | 46 | 1007.7 |
| 20260505163010 | 78 | 214 | 1.7 | 7.8 | 0.00 | 0.06 | 0.06 | 46 | 1007.8 |
| 20260505162503 | 78 | 221 | 2.6 | 7.8 | 0.00 | 0.06 | 0.06 | 46 | 1008.0 |
| 20260505162005 | 78 | 224 | 3.5 | 10.4 | 0.00 | 0.06 | 0.06 | 47 | 1008.0 |
| 20260505161510 | 78 | 180 | 3.5 | 10.4 | 0.00 | 0.06 | 0.06 | 46 | 1008.1 |
| 20260505161005 | 78 | 257 | 3.5 | 7.8 | 0.00 | 0.06 | 0.06 | 48 | 1008.2 |
| 20260505160507 | 77 | 184 | 3.5 | 7.8 | 0.00 | 0.06 | 0.06 | 52 | 1008.3 |
| 20260505153007 | 74 | 177 | 4.3 | 7.8 | 0.00 | 0.06 | 0.06 | 52 | 1008.7 |
| 20260505152504 | 75 | 155 | 3.5 | 6.1 | 0.00 | 0.06 | 0.06 | 55 | 1008.6 |
| 20260505152008 | 75 | 149 | 3.5 | 7.8 | 0.00 | 0.06 | 0.06 | 53 | 1008.8 |
| 20260505151510 | 75 | 159 | 5.2 | 7.8 | 0.00 | 0.06 | 0.06 | 51 | 1008.7 |
| 20260505151009 | 75 | 193 | 4.3 | 6.1 | 0.00 | 0.06 | 0.06 | 54 | 1008.7 |
| 20260505150507 | 74 | 135 | 3.5 | 7.0 | 0.00 | 0.06 | 0.06 | 57 | 1008.7 |
| 20260505140507 | 70 | 206 | 0.9 | 2.6 | 0.00 | 0.06 | 0.06 | 68 | 1009.1 |
| 20260505125008 | 56 | 259 | 0.0 | 0.9 | 0.04 | 0.06 | 0.06 | 90 | 1009.8 |
| 20260505124518 | 56 | 290 | 0.0 | 1.7 | 0.04 | 0.06 | 0.06 | 90 | 1009.7 |
| 20260505124006 | 56 | 266 | 0.0 | 1.7 | 0.04 | 0.06 | 0.06 | 90 | 1009.9 |
| 20260505123507 | 56 | 225 | 0.0 | 1.7 | 0.04 | 0.06 | 0.06 | 89 | 1009.9 |
| 20260505123017 | 56 | 224 | 0.0 | 1.7 | 0.04 | 0.06 | 0.06 | 89 | 1009.9 |
| 20260505122507 | 56 | 164 | 0.9 | 2.6 | 0.04 | 0.06 | 0.06 | 88 | 1009.9 |
| 20260505122007 | 57 | 10 | 0.0 | 2.6 | 0.03 | 0.05 | 0.05 | 88 | 1010.2 |
| 20260505121519 | 57 | 359 | 0.0 | 1.7 | 0.01 | 0.03 | 0.03 | 89 | 1010.8 |
| 20260505121008 | 56 | 347 | 0.0 | 1.7 | 0.01 | 0.03 | 0.03 | 89 | 1010.2 |
| 20260505120513 | 56 | 275 | 0.0 | 1.7 | 0.00 | 0.02 | 0.02 | 89 | 1010.2 |
| 20260505120019 | 56 | 266 | 0.0 | 1.7 | 0.00 | 0.02 | 0.02 | 88 | 1010.1 |
| 20260505115508 | 56 | 214 | 0.0 | 0.0 | 0.00 | 0.02 | 0.02 | 87 | 1010.3 |
| 20260505115011 | 56 | 214 | 0.0 | 0.0 | 0.00 | 0.02 | 0.02 | 86 | 1010.1 |
| 20260505114516 | 56 | 126 | 0.0 | 0.0 | 0.00 | 0.02 | 0.02 | 87 | 1010.0 |
| 20260505114013 | 56 | 125 | 0.0 | 0.0 | 0.00 | 0.02 | 0.02 | 88 | 1009.7 |
| 20260505113504 | 55 | 125 | 0.0 | 0.0 | 0.00 | 0.02 | 0.02 | 88 | 1009.5 |
| 20260505113007 | 55 | 125 | 0.0 | 0.0 | 0.00 | 0.02 | 0.02 | 88 | 1009.4 |
| 20260505112507 | 55 | 126 | 0.0 | 0.0 | 0.00 | 0.02 | 0.02 | 89 | 1009.3 |
| 20260505112003 | 55 | 125 | 0.0 | 0.0 | 0.00 | 0.02 | 0.02 | 89 | 1009.4 |
| 20260505111511 | 55 | 126 | 0.0 | 0.0 | 0.00 | 0.02 | 0.02 | 89 | 1009.3 |
| 20260505111003 | 55 | 247 | 0.0 | 0.0 | 0.00 | 0.02 | 0.02 | 90 | 1009.2 |
| 20260505110504 | 55 | 247 | 0.0 | 0.0 | 0.00 | 0.02 | 0.02 | 90 | 1009.2 |
| 20260505102007 | 54 | 278 | 0.0 | 0.0 | 0.02 | 0.02 | 0.02 | 89 | 1009.1 |
| 20260505101512 | 54 | 278 | 0.0 | 0.0 | 0.02 | 0.02 | 0.02 | 88 | 1009.3 |
| 20260505101007 | 54 | 278 | 0.0 | 0.0 | 0.02 | 0.02 | 0.02 | 88 | 1009.3 |
| 20260505100504 | 54 | 279 | 0.0 | 0.0 | 0.02 | 0.02 | 0.02 | 88 | 1009.3 |
| 20260505100003 | 54 | 329 | 0.0 | 0.0 | 0.02 | 0.02 | 0.02 | 88 | 1009.2 |
| 20260505095501 | 53 | 286 | 0.0 | 0.0 | 0.02 | 0.02 | 0.02 | 88 | 1009.1 |
| 20260505095003 | 53 | 278 | 0.0 | 0.0 | 0.02 | 0.02 | 0.02 | 88 | 1009.2 |
| 20260505094508 | 54 | 274 | 0.0 | 1.7 | 0.02 | 0.02 | 0.02 | 88 | 1008.9 |
| 20260505094006 | 54 | 281 | 0.0 | 1.7 | 0.02 | 0.02 | 0.02 | 87 | 1008.7 |
| 20260505093505 | 54 | 275 | 0.0 | 2.6 | 0.02 | 0.02 | 0.02 | 87 | 1008.7 |
| 20260505093012 | 54 | 260 | 0.0 | 2.6 | 0.02 | 0.02 | 0.02 | 84 | 1008.6 |
| 20260505092507 | 54 | 305 | 0.0 | 1.7 | 0.02 | 0.02 | 0.02 | 81 | 1008.1 |
| 20260505092007 | 54 | 259 | 0.0 | 1.7 | 0.00 | 0.00 | 0.00 | 79 | 1008.8 |
| 20260505091514 | 54 | 258 | 0.9 | 1.7 | 0.00 | 0.00 | 0.00 | 78 | 1008.6 |
| 20260505091004 | 54 | 254 | 0.9 | 1.7 | 0.00 | 0.00 | 0.00 | 79 | 1008.5 |
| 20260505090508 | 53 | 259 | 0.0 | 0.0 | 0.00 | 0.00 | 0.00 | 78 | 1008.4 |
| 20260505090019 | 54 | 259 | 0.0 | 0.0 | 0.00 | 0.00 | 0.00 | 78 | 1008.6 |
| 20260505085507 | 53 | 259 | 0.0 | 0.0 | 0.00 | 0.00 | 0.00 | 78 | 1008.6 |
| 20260505085010 | 54 | 259 | 0.0 | 0.0 | 0.00 | 0.00 | 0.00 | 77 | 1008.6 |
| 20260505084520 | 54 | 259 | 0.0 | 0.0 | 0.00 | 0.00 | 0.00 | 76 | 1008.8 |
| 20260505084005 | 54 | 259 | 0.0 | 0.0 | 0.00 | 0.00 | 0.00 | 76 | 1008.7 |
| 20260505083508 | 54 | 259 | 0.0 | 0.0 | 0.00 | 0.00 | 0.00 | 75 | 1008.7 |
| 20260505083013 | 54 | 259 | 0.0 | 0.0 | 0.00 | 0.00 | 0.00 | 75 | 1008.7 |
| 20260505082507 | 54 | 259 | 0.0 | 0.0 | 0.00 | 0.00 | 0.00 | 74 | 1008.6 |
| 20260505082005 | 55 | 259 | 0.0 | 0.0 | 0.00 | 0.00 | 0.00 | 73 | 1008.6 |
| 20260505081513 | 55 | 259 | 0.0 | 0.0 | 0.00 | 0.00 | 0.00 | 73 | 1008.6 |
| 20260505081008 | 55 | 259 | 0.0 | 0.0 | 0.00 | 0.00 | 0.00 | 72 | 1008.6 |
| 20260505080506 | 55 | 259 | 0.0 | 0.0 | 0.00 | 0.00 | 0.00 | 72 | 1008.5 |
| 20260505080014 | 55 | 259 | 0.0 | 0.0 | 0.00 | 0.00 | 0.00 | 72 | 1008.5 |
| 20260505075509 | 56 | 259 | 0.0 | 0.0 | 0.00 | 0.00 | 0.00 | 71 | 1008.5 |
| 20260505075012 | 56 | 259 | 0.0 | 0.0 | 0.00 | 0.00 | 0.00 | 70 | 1008.4 |
| 20260505074518 | 56 | 259 | 0.0 | 0.0 | 0.00 | 0.00 | 0.00 | 71 | 1008.4 |
| 20260505074006 | 56 | 259 | 0.0 | 0.0 | 0.00 | 0.00 | 0.00 | 70 | 1008.4 |
| 20260505073507 | 57 | 259 | 0.0 | 0.0 | 0.00 | 0.00 | 0.00 | 70 | 1008.4 |
| 20260505073023 | 57 | 259 | 0.0 | 0.0 | 0.00 | 0.00 | 0.00 | 70 | 1008.3 |
| 20260505072502 | 57 | 259 | 0.0 | 0.0 | 0.00 | 0.00 | 0.00 | 71 | 1008.3 |
| 20260505072005 | 57 | 259 | 0.0 | 0.0 | 0.00 | 0.00 | 0.00 | 70 | 1008.3 |
| 20260505071520 | 57 | 259 | 0.0 | 0.0 | 0.00 | 0.00 | 0.00 | 71 | 1008.3 |
| 20260505071007 | 57 | 259 | 0.0 | 0.0 | 0.00 | 0.00 | 0.00 | 69 | 1008.3 |
| 20260505070507 | 57 | 259 | 0.0 | 0.0 | 0.00 | 0.00 | 0.00 | 70 | 1008.3 |
| 20260505070012 | 58 | 308 | 0.0 | 0.0 | 0.00 | 0.00 | 0.00 | 68 | 1008.2 |
| 20260505065507 | 58 | 255 | 0.0 | 0.0 | 0.00 | 0.00 | 0.00 | 68 | 1008.3 |
| 20260505065008 | 58 | 255 | 0.0 | 0.0 | 0.00 | 0.00 | 0.00 | 66 | 1008.1 |
| 20260505064523 | 58 | 255 | 0.0 | 0.0 | 0.00 | 0.00 | 0.00 | 65 | 1008.2 |
| 20260505064007 | 58 | 255 | 0.0 | 0.0 | 0.00 | 0.00 | 0.00 | 66 | 1008.3 |
| 20260505063507 | 58 | 255 | 0.0 | 0.9 | 0.00 | 0.00 | 0.00 | 66 | 1008.3 |
| 20260505063020 | 58 | 255 | 0.0 | 0.9 | 0.00 | 0.00 | 0.00 | 66 | 1008.3 |
| 20260505062510 | 58 | 255 | 0.0 | 0.9 | 0.00 | 0.00 | 0.00 | 66 | 1008.3 |
| 20260505062010 | 58 | 255 | 0.0 | 0.9 | 0.00 | 0.00 | 0.00 | 67 | 1008.3 |
| 20260505061523 | 58 | 255 | 0.9 | 0.9 | 0.00 | 0.00 | 0.00 | 67 | 1008.5 |
| 20260505061008 | 58 | 253 | 0.9 | 0.9 | 0.00 | 0.00 | 0.00 | 66 | 1008.6 |
| 20260505060509 | 58 | 254 | 0.0 | 0.9 | 0.00 | 0.00 | 0.00 | 68 | 1008.5 |
| 20260505060011 | 58 | 254 | 0.0 | 0.9 | 0.00 | 0.00 | 0.00 | 65 | 1008.4 |
| 20260505055507 | 58 | 254 | 0.0 | 0.9 | 0.00 | 0.00 | 0.00 | 65 | 1008.6 |
| 20260505055007 | 59 | 254 | 0.0 | 0.9 | 0.00 | 0.00 | 0.00 | 65 | 1008.6 |
| 20260505054514 | 59 | 254 | 0.0 | 0.9 | 0.00 | 0.00 | 0.00 | 63 | 1008.6 |
| 20260505054012 | 59 | 254 | 0.0 | 0.9 | 0.00 | 0.00 | 0.00 | 63 | 1008.6 |
| 20260505053511 | 59 | 254 | 0.0 | 0.9 | 0.00 | 0.00 | 0.00 | 64 | 1008.7 |
| 20260505053030 | 59 | 254 | 0.0 | 0.9 | 0.00 | 0.00 | 0.00 | 63 | 1008.8 |
| 20260505052513 | 60 | 254 | 0.0 | 0.9 | 0.00 | 0.00 | 0.00 | 64 | 1008.8 |
| 20260505052006 | 59 | 254 | 0.0 | 0.9 | 0.00 | 0.00 | 0.00 | 63 | 1008.8 |
| 20260505051534 | 59 | 254 | 0.0 | 0.9 | 0.00 | 0.00 | 0.00 | 63 | 1008.7 |
| 20260505051011 | 59 | 254 | 0.0 | 0.9 | 0.00 | 0.00 | 0.00 | 64 | 1008.7 |
| 20260505050513 | 59 | 254 | 0.0 | 0.9 | 0.00 | 0.00 | 0.00 | 65 | 1008.7 |
| 20260505041521 | 59 | 272 | 0.0 | 0.0 | 0.00 | 0.00 | 0.00 | 63 | 1008.6 |
| 20260505041009 | 59 | 272 | 0.0 | 0.0 | 0.00 | 0.00 | 0.00 | 64 | 1008.4 |
| 20260505040510 | 59 | 272 | 0.0 | 0.0 | 0.00 | 0.00 | 0.00 | 64 | 1008.4 |
| 20260505040035 | 59 | 272 | 0.0 | 0.9 | 0.00 | 0.00 | 0.00 | 63 | 1008.4 |
| 20260505035509 | 59 | 272 | 0.0 | 0.9 | 0.00 | 0.00 | 0.00 | 63 | 1008.4 |
| 20260505035010 | 59 | 273 | 0.0 | 0.9 | 0.00 | 0.00 | 0.00 | 64 | 1008.3 |
| 20260505034524 | 60 | 274 | 0.0 | 0.9 | 0.00 | 0.00 | 0.00 | 63 | 1008.2 |